Flag for Germany Weather past 2 weeks in Arnstadt, Thuringia, Germany

Now
68 °F

Partly sunny.


Feels Like: 68 °F
Forecast: 53 / 64 °F
Wind: 5 mph from North

Location: Erfurt-Bindersleben

Current Time: Sep 20, 2014 at 2:04:19 PM

Latest Report: Sep 20, 2014 at 1:00 PM


Visibility: 17 mi

Pressure: 29.93 "Hg

Humidity: 81%

Dew point: 62 °F

Location of ArnstadtLocation

Historic Weather in Arnstadt — Graph

°F

Arnstadt temperature yesterday

Maximum temperature yesterday: 73 °F (at 2:00 PM)
Minimum temperature yesterday: 59 °F (at 8:00 AM)
Average temperature yesterday: 64 °F

Past Weeks' High & Low Weather Summary

 TemperatureHumidityPressure
High76 °F (Sep 5, 5:00 PM)99% (Sep 7, 8:00 AM)30.18 "Hg (Sep 7, 8:00 AM)
Low52 °F (Sep 11, 12:00 AM)53% (Sep 16, 4:00 PM)29.85 "Hg (Sep 6, 5:00 PM)
Average61 °F87%30.01 "Hg
* Reported Sep 5 1:00 PM — Sep 20 1:00 PM, Arnstadt, Weather by CustomWeather, © 2014

Note: Actual official high and low records may vary slightly from our data, if they occured in-between our weather recording intervals... More about our weather records

Advertising

Arnstadt weather history for previous 24 hours

 ConditionsComfort  
Time TempWeatherWind HumidityBarometerVisibility
1:00 PM
Sep 20
68 °FPartly sunny.5 mph81%29.93 "Hg17 mi
12:00 PM69 °FScattered clouds.3 mph84%29.92 "Hg16 mi
11:00 AM67 °FPassing clouds.5 mph86%29.93 "Hg14 mi
10:00 AM64 °FScattered clouds.3 mph90%29.93 "Hg11 mi
9:00 AM62 °FScattered clouds.2 mph94%29.93 "Hg15 mi
8:00 AM59 °FScattered clouds.3 mph96%29.94 "Hg12 mi
7:00 AM58 °FPartly sunny.3 mph96%29.94 "Hg16 mi
6:00 AM58 °FPassing clouds.2 mph94%29.93 "Hg16 mi
5:00 AM60 °FPassing clouds.3 mph96%29.93 "Hg16 mi
4:00 AM58 °FPassing clouds.3 mph97%29.94 "Hg16 mi
3:00 AM58 °FPassing clouds.2 mph95%29.95 "Hg16 mi
2:00 AM58 °FPassing clouds.3 mph98%29.95 "Hg19 mi
1:00 AM59 °FPassing clouds.3 mph97%29.94 "Hg19 mi
12:00 AM59 °FPassing clouds.3 mph96%29.94 "Hg19 mi
11:00 PM
Sep 19
61 °FPassing clouds.2 mph97%29.94 "Hg22 mi
10:00 PM61 °FPassing clouds.3 mph97%29.93 "Hg25 mi
9:00 PM62 °FOvercast.2 mph97%29.94 "Hg25 mi
8:00 PM63 °FOvercast.3 mph94%29.92 "Hg16 mi
7:00 PM64 °FOvercast.3 mph93%29.91 "Hg16 mi
6:00 PM63 °FThundershowers. Overcast.6 mph93%29.90 "Hg6 mi
5:00 PM67 °FThundershowers. Overcast.6 mph82%29.88 "Hg2 mi
4:00 PM71 °FOvercast.2 mph72%29.87 "Hg16 mi
3:00 PM71 °FThunderstorms. Overcast.1 mph76%29.88 "Hg17 mi
2:00 PM73 °FPartly sunny.1 mph66%29.87 "Hg16 mi
Weather by CustomWeather, © 2014

See weather overviewHow to use our weather pages